Time,TemperatureF,DewpointF,PressureIn,WindDirection,WindDirectionDegrees,WindSpeedMPH,WindSpeedGustMPH,Humidity,HourlyPrecipIn,Conditions,Clouds,dailyrainin,SoftwareType,DateUTC
2013-07-17 00:11:00,60.0,32.0,-100.00,NE,39,4.0,5.0,34,-99.99,,,-99.99,,2013-07-17 07:11:00,
2013-07-17 00:22:00,59.0,31.0,-100.00,NNE,32,5.0,7.0,35,-99.99,,,-99.99,,2013-07-17 07:22:00,
2013-07-17 00:32:00,60.0,32.0,-100.00,NE,48,6.0,8.0,35,-99.99,,,-99.99,,2013-07-17 07:32:00,
2013-07-17 00:42:00,61.0,32.0,-100.00,NE,46,6.0,7.0,34,-99.99,,,-99.99,,2013-07-17 07:42:00,
2013-07-17 01:01:00,58.0,32.0,-100.00,NNE,32,5.0,7.0,37,-99.99,,,-99.99,,2013-07-17 08:01:00,
2013-07-17 01:22:00,57.0,31.0,-100.00,NE,39,4.0,6.0,37,-99.99,,,-99.99,,2013-07-17 08:22:00,
2013-07-17 01:32:00,58.0,32.0,-100.00,NE,42,5.0,8.0,37,-99.99,,,-99.99,,2013-07-17 08:32:00,
2013-07-17 01:42:00,59.0,30.0,-100.00,NE,46,7.0,9.0,33,-99.99,,,-99.99,,2013-07-17 08:42:00,
2013-07-17 01:52:00,58.0,30.0,-100.00,NE,39,6.0,8.0,34,-99.99,,,-99.99,,2013-07-17 08:52:00,
2013-07-17 02:11:00,58.0,29.0,-100.00,NE,48,6.0,9.0,33,-99.99,,,-99.99,,2013-07-17 09:11:00,
2013-07-17 02:22:00,58.0,29.0,-100.00,NE,48,6.0,9.0,33,-99.99,,,-99.99,,2013-07-17 09:22:00,
2013-07-17 02:32:00,57.0,29.0,-100.00,NE,50,7.0,9.0,34,-99.99,,,-99.99,,2013-07-17 09:32:00,
2013-07-17 03:22:00,55.0,26.0,-100.00,NE,43,6.0,9.0,33,-99.99,,,-99.99,,2013-07-17 10:22:00,
2013-07-17 03:32:00,56.0,26.0,-100.00,NE,34,5.0,9.0,31,-99.99,,,-99.99,,2013-07-17 10:32:00,
2013-07-17 03:43:00,55.0,25.0,-100.00,NE,44,7.0,10.0,31,-99.99,,,-99.99,,2013-07-17 10:43:00,
2013-07-17 03:52:00,55.0,24.0,-100.00,NE,44,7.0,11.0,30,-99.99,,,-99.99,,2013-07-17 10:52:00,
2013-07-17 04:01:00,55.0,24.0,-100.00,NE,44,7.0,11.0,30,-99.99,,,-99.99,,2013-07-17 11:01:00,
2013-07-17 04:11:00,55.0,23.0,-100.00,NE,46,8.0,11.0,28,-99.99,,,-99.99,,2013-07-17 11:11:00,
2013-07-17 04:22:00,55.0,23.0,-100.00,NE,46,8.0,11.0,28,-99.99,,,-99.99,,2013-07-17 11:22:00,
2013-07-17 04:32:00,55.0,23.0,-100.00,NE,39,6.0,9.0,29,-99.99,,,-99.99,,2013-07-17 11:32:00,
2013-07-17 04:52:00,54.0,22.0,-100.00,NE,39,5.0,7.0,29,-99.99,,,-99.99,,2013-07-17 11:52:00,
2013-07-17 05:12:00,54.0,22.0,-100.00,NNE,29,6.0,9.0,28,-99.99,,,-99.99,,2013-07-17 12:12:00,
2013-07-17 05:22:00,54.0,21.0,-100.00,NE,39,5.0,8.0,27,-99.99,,,-99.99,,2013-07-17 12:22:00,
2013-07-17 05:32:00,55.0,22.0,-100.00,NE,51,6.0,9.0,27,-99.99,,,-99.99,,2013-07-17 12:32:00,
2013-07-17 05:53:00,54.0,20.0,-100.00,NE,44,6.0,9.0,26,-99.99,,,-99.99,,2013-07-17 12:53:00,
2013-07-17 06:01:00,54.0,20.0,-100.00,NE,36,6.0,9.0,26,-99.99,,,-99.99,,2013-07-17 13:01:00,
2013-07-17 06:12:00,54.0,20.0,-100.00,NE,44,7.0,10.0,26,-99.99,,,-99.99,,2013-07-17 13:12:00,
2013-07-17 06:32:00,53.0,21.0,-100.00,NNE,32,6.0,8.0,28,-99.99,,,-99.99,,2013-07-17 13:32:00,
2013-07-17 06:52:00,53.0,20.0,-100.00,NE,38,5.0,9.0,27,-99.99,,,-99.99,,2013-07-17 13:52:00,
2013-07-17 07:02:00,55.0,19.0,-100.00,NNE,31,5.0,7.0,24,-99.99,,,-99.99,,2013-07-17 14:02:00,
2013-07-17 07:11:00,56.0,19.0,-100.00,NE,44,5.0,9.0,23,-99.99,,,-99.99,,2013-07-17 14:11:00,
2013-07-17 07:22:00,57.0,19.0,-100.00,NNE,32,4.0,6.0,22,-99.99,,,-99.99,,2013-07-17 14:22:00,
2013-07-17 07:32:00,57.0,19.0,-100.00,NNE,32,4.0,6.0,22,-99.99,,,-99.99,,2013-07-17 14:32:00,
2013-07-17 07:43:00,61.0,20.0,-100.00,NNE,26,3.0,4.0,20,-99.99,,,-99.99,,2013-07-17 14:43:00,
2013-07-17 07:52:00,61.0,20.0,-100.00,NNE,26,3.0,4.0,20,-99.99,,,-99.99,,2013-07-17 14:52:00,
2013-07-17 08:01:00,67.0,19.0,-100.00,NNE,30,2.0,4.0,16,-99.99,,,-99.99,,2013-07-17 15:01:00,
2013-07-17 08:12:00,72.0,20.0,-100.00,NNE,28,0.0,2.0,14,-99.99,,,-99.99,,2013-07-17 15:12:00,
2013-07-17 09:11:00,79.0,10.0,-100.00,SW,223,2.0,4.0,7,-99.99,,,-99.99,,2013-07-17 16:11:00,
2013-07-17 09:42:00,83.0,5.0,-100.00,SSW,208,4.0,7.0,5,-99.99,,,-99.99,,2013-07-17 16:42:00,
2013-07-17 10:01:00,83.0,5.0,-100.00,SW,214,4.0,8.0,5,-99.99,,,-99.99,,2013-07-17 17:01:00,
2013-07-17 10:32:00,84.0,1.0,-100.00,WSW,246,5.0,10.0,4,-99.99,,,-99.99,,2013-07-17 17:32:00,
2013-07-17 11:11:00,87.0,3.0,-100.00,SW,228,4.0,10.0,4,-99.99,,,-99.99,,2013-07-17 18:11:00,
2013-07-17 11:22:00,88.0,4.0,-100.00,WSW,256,4.0,9.0,4,-99.99,,,-99.99,,2013-07-17 18:22:00,
2013-07-17 11:32:00,88.0,4.0,-100.00,WSW,256,4.0,9.0,4,-99.99,,,-99.99,,2013-07-17 18:32:00,
2013-07-17 11:43:00,88.0,4.0,-100.00,WSW,256,4.0,9.0,4,-99.99,,,-99.99,,2013-07-17 18:43:00,
2013-07-17 11:52:00,89.0,4.0,-100.00,WNW,282,5.0,10.0,4,-99.99,,,-99.99,,2013-07-17 18:52:00,
2013-07-17 12:01:00,89.0,4.0,-100.00,West,259,5.0,10.0,4,-99.99,,,-99.99,,2013-07-17 19:01:00,
2013-07-17 12:11:00,89.0,4.0,-100.00,WSW,253,5.0,12.0,4,-99.99,,,-99.99,,2013-07-17 19:11:00,
2013-07-17 12:22:00,90.0,5.0,-100.00,WSW,250,7.0,12.0,4,-99.99,,,-99.99,,2013-07-17 19:22:00,
2013-07-17 12:32:00,90.0,5.0,-100.00,WSW,250,7.0,12.0,4,-99.99,,,-99.99,,2013-07-17 19:32:00,
2013-07-17 12:43:00,91.0,11.0,-100.00,WSW,240,7.0,12.0,5,-99.99,,,-99.99,,2013-07-17 19:43:00,
2013-07-17 13:11:00,91.0,11.0,-100.00,SW,227,9.0,14.0,5,-99.99,,,-99.99,,2013-07-17 20:11:00,
2013-07-17 13:22:00,93.0,12.0,-100.00,SW,230,8.0,13.0,5,-99.99,,,-99.99,,2013-07-17 20:22:00,
2013-07-17 13:33:00,91.0,15.0,-100.00,WSW,251,7.0,13.0,6,-99.99,,,-99.99,,2013-07-17 20:33:00,
2013-07-17 13:43:00,92.0,16.0,-100.00,SW,226,8.0,15.0,6,-99.99,,,-99.99,,2013-07-17 20:43:00,
2013-07-17 13:52:00,92.0,19.0,-100.00,SW,226,9.0,15.0,7,-99.99,,,-99.99,,2013-07-17 20:52:00,
2013-07-17 14:11:00,92.0,19.0,-100.00,SW,224,10.0,16.0,7,-99.99,,,-99.99,,2013-07-17 21:11:00,
2013-07-17 14:42:00,92.0,25.0,-100.00,SW,224,12.0,17.0,9,-99.99,,,-99.99,,2013-07-17 21:42:00,
2013-07-17 14:52:00,92.0,25.0,-100.00,SW,224,12.0,17.0,9,-99.99,,,-99.99,,2013-07-17 21:52:00,
2013-07-17 15:11:00,92.0,30.0,-100.00,SW,227,13.0,21.0,11,-99.99,,,-99.99,,2013-07-17 22:11:00,
2013-07-17 15:21:00,92.0,30.0,-100.00,SW,227,13.0,21.0,11,-99.99,,,-99.99,,2013-07-17 22:21:00,
2013-07-17 15:43:00,91.0,33.0,-100.00,SW,226,14.0,22.0,13,-99.99,,,-99.99,,2013-07-17 22:43:00,
2013-07-17 15:53:00,91.0,33.0,-100.00,SW,226,14.0,22.0,13,-99.99,,,-99.99,,2013-07-17 22:53:00,
2013-07-17 16:11:00,91.0,33.0,-100.00,SW,221,13.0,20.0,13,-99.99,,,-99.99,,2013-07-17 23:11:00,
2013-07-17 16:32:00,91.0,35.0,-100.00,SW,224,14.0,21.0,14,-99.99,,,-99.99,,2013-07-17 23:32:00,
2013-07-17 16:42:00,91.0,35.0,-100.00,SW,221,11.0,21.0,14,-99.99,,,-99.99,,2013-07-17 23:42:00,
2013-07-17 16:52:00,91.0,35.0,-100.00,SW,221,11.0,21.0,14,-99.99,,,-99.99,,2013-07-17 23:52:00,
2013-07-17 17:01:00,91.0,35.0,-100.00,SW,223,12.0,20.0,14,-99.99,,,-99.99,,2013-07-18 00:01:00,
2013-07-17 17:10:00,89.0,34.0,-100.00,WSW,255,10.0,15.0,14,-99.99,,,-99.99,,2013-07-18 00:10:00,
2013-07-17 17:11:00,91.0,35.0,-100.00,SW,223,12.0,20.0,14,-99.99,,,-99.99,,2013-07-18 00:11:00,
2013-07-17 17:22:00,90.0,34.0,-100.00,SW,232,12.0,18.0,14,-99.99,,,-99.99,,2013-07-18 00:22:00,
2013-07-17 17:32:00,90.0,34.0,-100.00,SW,232,12.0,18.0,14,-99.99,,,-99.99,,2013-07-18 00:32:00,
2013-07-17 17:40:00,89.0,32.0,-100.00,West,260,7.0,14.0,13,-99.99,,,-99.99,,2013-07-18 00:40:00,
2013-07-17 17:42:00,89.0,34.0,-100.00,WSW,255,10.0,15.0,14,-99.99,,,-99.99,,2013-07-18 00:42:00,
2013-07-17 17:52:00,89.0,34.0,-100.00,WSW,255,10.0,15.0,14,-99.99,,,-99.99,,2013-07-18 00:52:00,
2013-07-17 18:01:00,89.0,34.0,-100.00,WSW,255,10.0,15.0,14,-99.99,,,-99.99,,2013-07-18 01:01:00,
2013-07-17 18:22:00,89.0,32.0,-100.00,West,260,7.0,14.0,13,-99.99,,,-99.99,,2013-07-18 01:22:00,
2013-07-17 18:32:00,89.0,32.0,-100.00,West,260,7.0,14.0,13,-99.99,,,-99.99,,2013-07-18 01:32:00,
2013-07-17 19:01:00,86.0,33.0,-100.00,WSW,256,7.0,12.0,15,-99.99,,,-99.99,,2013-07-18 02:01:00,
2013-07-17 19:11:00,86.0,33.0,-100.00,WSW,256,7.0,12.0,15,-99.99,,,-99.99,,2013-07-18 02:11:00,
2013-07-17 19:32:00,84.0,31.0,-100.00,West,264,6.0,12.0,15,-99.99,,,-99.99,,2013-07-18 02:32:00,
2013-07-17 20:01:00,81.0,43.0,-100.00,SW,227,7.0,12.0,26,-99.99,,,-99.99,,2013-07-18 03:01:00,
2013-07-17 20:11:00,81.0,43.0,-100.00,SW,227,7.0,12.0,26,-99.99,,,-99.99,,2013-07-18 03:11:00,
2013-07-17 20:52:00,75.0,48.0,-100.00,SW,233,4.0,5.0,38,-99.99,,,-99.99,,2013-07-18 03:52:00,
2013-07-17 21:12:00,74.0,47.0,-100.00,WSW,246,4.0,7.0,39,-99.99,,,-99.99,,2013-07-18 04:12:00,
2013-07-17 21:32:00,73.0,48.0,-100.00,WSW,240,3.0,4.0,41,-99.99,,,-99.99,,2013-07-18 04:32:00,
2013-07-17 21:43:00,72.0,48.0,-100.00,West,273,3.0,5.0,42,-99.99,,,-99.99,,2013-07-18 04:43:00,
2013-07-17 21:52:00,72.0,48.0,-100.00,West,273,3.0,5.0,42,-99.99,,,-99.99,,2013-07-18 04:52:00,
2013-07-17 22:01:00,72.0,49.0,-100.00,NW,315,3.0,5.0,44,-99.99,,,-99.99,,2013-07-18 05:01:00,
2013-07-17 22:32:00,70.0,48.0,-100.00,WSW,251,0.0,2.0,46,-99.99,,,-99.99,,2013-07-18 05:32:00,
2013-07-17 22:52:00,68.0,46.0,-100.00,NE,51,1.0,2.0,46,-99.99,,,-99.99,,2013-07-18 05:52:00,
2013-07-17 23:01:00,66.0,44.0,-100.00,NE,39,2.0,4.0,45,-99.99,,,-99.99,,2013-07-18 06:01:00,
2013-07-17 23:11:00,66.0,44.0,-100.00,NE,39,2.0,4.0,45,-99.99,,,-99.99,,2013-07-18 06:11:00,
2013-07-17 23:22:00,66.0,44.0,-100.00,NE,39,2.0,4.0,45,-99.99,,,-99.99,,2013-07-18 06:22:00,
2013-07-17 23:32:00,66.0,44.0,-100.00,NE,39,2.0,4.0,45,-99.99,,,-99.99,,2013-07-18 06:32:00,
2013-07-17 23:40:00,62.0,42.0,-100.00,NE,43,5.0,7.0,48,-99.99,,,-99.99,,2013-07-18 06:40:00,
2013-07-17 23:43:00,64.0,43.0,-100.00,NE,35,3.0,6.0,46,-99.99,,,-99.99,,2013-07-18 06:43:00,
2013-07-17 23:52:00,64.0,43.0,-100.00,NE,35,3.0,6.0,46,-99.99,,,-99.99,,2013-07-18 06:52:00,